| time (UTC) | temp F | wind direction | speed MPH | gust MPH | rain 1hr in | rain 24hr in | rain mn in | humidity % | barometer mb |
| 20260508080027 | 32 | 0.0 | 0.0 | 0.00 | 0.01 | 0.00 | 49 | 1011.6 | |
| 20260508075527 | 32 | 0.0 | 1.0 | 0.00 | 0.01 | 0.00 | 49 | 1011.5 | |
| 20260508075047 | 32 | 0.0 | 2.0 | 0.00 | 0.01 | 0.00 | 49 | 1011.4 | |
| 20260508074527 | 32 | 0.0 | 2.0 | 0.00 | 0.01 | 0.00 | 49 | 1011.4 | |
| 20260508074027 | 32 | 0.0 | 1.0 | 0.00 | 0.02 | 0.00 | 48 | 1011.3 | |
| 20260508073527 | 32 | 0.0 | 1.0 | 0.00 | 0.02 | 0.00 | 48 | 1011.2 | |
| 20260508073026 | 32 | 0.0 | 0.0 | 0.00 | 0.02 | 0.00 | 48 | 1011.2 | |
| 20260508072527 | 32 | 0.0 | 0.0 | 0.00 | 0.02 | 0.00 | 48 | 1011.3 | |
| 20260508072027 | 32 | 0.0 | 0.0 | 0.00 | 0.02 | 0.00 | 48 | 1011.2 | |
| 20260508071527 | 32 | 0.0 | 0.0 | 0.00 | 0.02 | 0.00 | 48 | 1011.1 | |
| 20260508071047 | 32 | 0.0 | 0.0 | 0.00 | 0.02 | 0.00 | 47 | 1010.9 | |
| 20260508070527 | 32 | 0.0 | 1.0 | 0.00 | 0.02 | 0.00 | 47 | 1010.8 | |
| 20260508070027 | 32 | 0.0 | 1.0 | 0.00 | 0.02 | 0.00 | 46 | 1010.8 | |
| 20260508065527 | 32 | 0.0 | 1.0 | 0.00 | 0.02 | 0.00 | 45 | 1010.8 | |
| 20260508065027 | 32 | 0.0 | 1.0 | 0.00 | 0.02 | 0.00 | 45 | 1010.6 | |
| 20260508064527 | 32 | 0.0 | 1.0 | 0.00 | 0.02 | 0.00 | 45 | 1010.4 | |
| 20260508064047 | 32 | 0.0 | 1.0 | 0.00 | 0.02 | 0.00 | 45 | 1010.3 | |
| 20260508063526 | 32 | 0.0 | 1.0 | 0.00 | 0.02 | 0.00 | 44 | 1010.3 | |
| 20260508063026 | 32 | 0.0 | 1.0 | 0.00 | 0.02 | 0.00 | 45 | 1010.3 | |
| 20260508062527 | 32 | 0.0 | 0.0 | 0.00 | 0.02 | 0.00 | 45 | 1010.2 | |
| 20260508062027 | 32 | 0.0 | 0.0 | 0.00 | 0.02 | 0.00 | 45 | 1010.2 | |
| 20260508061527 | 32 | 0.0 | 1.0 | 0.00 | 0.02 | 0.00 | 45 | 1010.1 | |
| 20260508061027 | 32 | 0.0 | 0.0 | 0.00 | 0.02 | 0.00 | 45 | 1010.2 | |
| 20260508060526 | 32 | 0.0 | 1.0 | 0.00 | 0.03 | 0.00 | 45 | 1010.1 | |
| 20260508060027 | 32 | 0.0 | 0.0 | 0.00 | 0.03 | 0.00 | 46 | 1010.0 | |
| 20260508055527 | 32 | 0.0 | 0.0 | 0.00 | 0.03 | 0.00 | 47 | 1010.0 | |
| 20260508055027 | 33 | 0.0 | 1.0 | 0.00 | 0.03 | 0.00 | 47 | 1010.0 | |
| 20260508054526 | 33 | 0.0 | 1.0 | 0.00 | 0.03 | 0.00 | 48 | 1010.1 | |
| 20260508054026 | 33 | 0.0 | 1.0 | 0.00 | 0.03 | 0.00 | 50 | 1010.2 | |
| 20260508053527 | 33 | 0.0 | 0.0 | 0.00 | 0.03 | 0.00 | 50 | 1010.3 | |
| 20260508053027 | 33 | 0.0 | 0.0 | 0.00 | 0.03 | 0.00 | 51 | 1010.4 | |
| 20260508052526 | 33 | 0.0 | 0.0 | 0.00 | 0.03 | 0.00 | 52 | 1010.5 | |
| 20260508052026 | 33 | 0.0 | 0.0 | 0.00 | 0.03 | 0.00 | 52 | 1010.7 | |
| 20260508051526 | 33 | 0.0 | 0.0 | 0.00 | 0.03 | 0.00 | 53 | 1010.6 | |
| 20260508051027 | 33 | 0.0 | 0.0 | 0.00 | 0.03 | 0.00 | 55 | 1010.7 | |
| 20260508050526 | 33 | 0.0 | 0.0 | 0.00 | 0.03 | 0.00 | 55 | 1010.7 | |
| 20260508050027 | 34 | 0.0 | 0.0 | 0.00 | 0.03 | 0.00 | 55 | 1010.5 | |
| 20260508045527 | 34 | 0.0 | 0.0 | 0.00 | 0.03 | 0.00 | 56 | 1010.4 | |
| 20260508045026 | 34 | 0.0 | 0.0 | 0.00 | 0.03 | 0.00 | 58 | 1010.5 | |
| 20260508044526 | 34 | 0.0 | 0.0 | 0.00 | 0.03 | 0.00 | 58 | 1010.6 | |
| 20260508044026 | 34 | 0.0 | 0.0 | 0.00 | 0.04 | 0.00 | 58 | 1010.6 | |
| 20260508043526 | 34 | 0.0 | 0.0 | 0.00 | 0.04 | 0.00 | 59 | 1010.7 | |
| 20260508043107 | 34 | 0.0 | 0.0 | 0.00 | 0.04 | 0.00 | 59 | 1010.7 | |
| 20260508042526 | 35 | 0.0 | 0.0 | 0.00 | 0.04 | 0.00 | 60 | 1010.7 | |
| 20260508042046 | 35 | 0.0 | 0.0 | 0.00 | 0.04 | 0.00 | 60 | 1010.7 | |
| 20260508041526 | 35 | 0.0 | 0.0 | 0.00 | 0.04 | 0.00 | 60 | 1010.8 | |
| 20260508041026 | 35 | 0.0 | 0.0 | 0.00 | 0.04 | 0.00 | 61 | 1010.9 | |
| 20260508040526 | 35 | 0.0 | 0.0 | 0.00 | 0.04 | 0.00 | 62 | 1010.9 | |
| 20260508040047 | 35 | 0.0 | 0.0 | 0.00 | 0.05 | 0.05 | 62 | 1011.0 | |
| 20260508035527 | 36 | 0.0 | 0.0 | 0.00 | 0.05 | 0.05 | 62 | 1011.0 | |
| 20260508035027 | 36 | 0.0 | 0.0 | 0.00 | 0.05 | 0.05 | 62 | 1011.0 | |
| 20260508034526 | 36 | 0.0 | 0.0 | 0.00 | 0.05 | 0.05 | 62 | 1010.8 | |
| 20260508034027 | 36 | 0.0 | 0.0 | 0.00 | 0.05 | 0.05 | 62 | 1010.7 | |
| 20260508033527 | 37 | 0.0 | 0.0 | 0.00 | 0.06 | 0.05 | 62 | 1010.7 | |
| 20260508033027 | 37 | 0.0 | 0.0 | 0.00 | 0.06 | 0.05 | 62 | 1010.8 | |
| 20260508032526 | 37 | 0.0 | 0.0 | 0.00 | 0.06 | 0.05 | 62 | 1010.8 | |
| 20260508032027 | 37 | 0.0 | 0.0 | 0.00 | 0.07 | 0.05 | 62 | 1010.8 | |
| 20260508031527 | 37 | 0.0 | 0.0 | 0.00 | 0.07 | 0.05 | 62 | 1010.7 | |
| 20260508031046 | 38 | 0.0 | 0.0 | 0.00 | 0.07 | 0.05 | 61 | 1010.9 | |
| 20260508030527 | 38 | 0.0 | 0.0 | 0.00 | 0.08 | 0.05 | 61 | 1011.0 | |
| 20260508030026 | 38 | 0.0 | 0.0 | 0.00 | 0.08 | 0.05 | 61 | 1010.8 | |
| 20260508025527 | 38 | 0.0 | 0.0 | 0.00 | 0.08 | 0.05 | 61 | 1011.0 | |
| 20260508025107 | 39 | 0.0 | 0.0 | 0.00 | 0.09 | 0.05 | 60 | 1010.9 | |
| 20260508024527 | 39 | 0.0 | 0.0 | 0.00 | 0.09 | 0.05 | 60 | 1010.9 | |
| 20260508024027 | 39 | 0.0 | 0.0 | 0.00 | 0.09 | 0.05 | 59 | 1010.9 | |
| 20260508023547 | 39 | 0.0 | 0.0 | 0.00 | 0.10 | 0.05 | 58 | 1010.9 | |
| 20260508023047 | 40 | 0.0 | 0.0 | 0.00 | 0.10 | 0.05 | 58 | 1010.8 | |
| 20260508022527 | 40 | 0.0 | 0.0 | 0.00 | 0.10 | 0.05 | 57 | 1010.9 | |
| 20260508022027 | 40 | 0.0 | 0.0 | 0.00 | 0.10 | 0.05 | 56 | 1010.8 | |
| 20260508021526 | 41 | 0.0 | 0.0 | 0.00 | 0.10 | 0.05 | 55 | 1010.9 | |
| 20260508021026 | 41 | 0.0 | 0.0 | 0.00 | 0.10 | 0.05 | 55 | 1010.9 | |
| 20260508020526 | 41 | 0.0 | 0.0 | 0.00 | 0.10 | 0.05 | 55 | 1010.8 | |
| 20260508020026 | 42 | 0.0 | 0.0 | 0.00 | 0.10 | 0.05 | 54 | 1010.8 | |
| 20260508015527 | 42 | 0.0 | 0.0 | 0.00 | 0.10 | 0.05 | 54 | 1010.8 | |
| 20260508015026 | 42 | 0.0 | 1.0 | 0.00 | 0.10 | 0.05 | 53 | 1010.8 | |
| 20260508014526 | 43 | 11 | 1.0 | 2.0 | 0.00 | 0.10 | 0.05 | 53 | 1010.8 |
| 20260508014026 | 43 | 0.0 | 1.0 | 0.00 | 0.10 | 0.05 | 51 | 1010.9 | |
| 20260508013527 | 44 | 0.0 | 0.0 | 0.00 | 0.10 | 0.05 | 48 | 1010.8 | |
| 20260508013026 | 44 | 0.0 | 0.0 | 0.00 | 0.11 | 0.05 | 47 | 1010.7 | |
| 20260508012546 | 44 | 0.0 | 0.0 | 0.00 | 0.11 | 0.05 | 45 | 1010.5 | |
| 20260508012026 | 45 | 0.0 | 0.0 | 0.00 | 0.11 | 0.05 | 44 | 1010.6 | |
| 20260508011526 | 45 | 0.0 | 0.0 | 0.00 | 0.11 | 0.05 | 42 | 1010.5 | |
| 20260508011027 | 46 | 0.0 | 0.0 | 0.00 | 0.11 | 0.05 | 42 | 1010.5 | |
| 20260508010526 | 46 | 0.0 | 0.0 | 0.00 | 0.11 | 0.05 | 41 | 1010.4 | |
| 20260508010027 | 47 | 0.0 | 0.0 | 0.00 | 0.11 | 0.05 | 41 | 1010.3 | |
| 20260508005527 | 47 | 0.0 | 0.0 | 0.00 | 0.11 | 0.05 | 39 | 1010.2 | |
| 20260508005027 | 48 | 0.0 | 0.0 | 0.00 | 0.11 | 0.05 | 39 | 1010.1 | |
| 20260508004527 | 48 | 0.0 | 0.0 | 0.00 | 0.11 | 0.05 | 38 | 1010.2 | |
| 20260508004046 | 49 | 0.0 | 0.0 | 0.00 | 0.11 | 0.05 | 37 | 1010.1 | |
| 20260508003526 | 49 | 0.0 | 1.0 | 0.00 | 0.11 | 0.05 | 35 | 1010.0 | |
| 20260508003026 | 50 | 0.0 | 1.0 | 0.00 | 0.11 | 0.05 | 33 | 1009.9 | |
| 20260508002526 | 50 | 11 | 1.0 | 2.0 | 0.00 | 0.11 | 0.05 | 33 | 1009.9 |
| 20260508002026 | 50 | 8 | 1.0 | 4.0 | 0.00 | 0.11 | 0.05 | 31 | 1009.9 |
| 20260508001526 | 50 | 0.0 | 4.0 | 0.00 | 0.11 | 0.05 | 32 | 1009.7 | |
| 20260508001026 | 51 | 0.0 | 0.0 | 0.00 | 0.11 | 0.05 | 31 | 1009.7 | |
| 20260508000546 | 51 | 0.0 | 2.0 | 0.00 | 0.11 | 0.05 | 30 | 1009.8 | |
| 20260508000027 | 52 | 0.0 | 1.0 | 0.00 | 0.11 | 0.05 | 30 | 1009.7 | |
| 20260507235526 | 52 | 0.0 | 2.0 | 0.00 | 0.11 | 0.05 | 30 | 1009.7 | |
| 20260507235026 | 53 | 0.0 | 2.0 | 0.00 | 0.11 | 0.05 | 30 | 1009.7 | |
| 20260507234526 | 53 | 3 | 2.0 | 6.0 | 0.00 | 0.11 | 0.05 | 27 | 1009.6 |
| 20260507234026 | 53 | 333 | 1.0 | 4.0 | 0.00 | 0.11 | 0.05 | 27 | 1009.4 |
| 20260507233526 | 54 | 338 | 3.0 | 6.0 | 0.00 | 0.11 | 0.05 | 26 | 1009.4 |
| 20260507233026 | 54 | 319 | 1.0 | 4.0 | 0.00 | 0.11 | 0.05 | 27 | 1009.4 |
| 20260507232527 | 54 | 343 | 4.0 | 10.0 | 0.00 | 0.11 | 0.05 | 26 | 1009.3 |
| 20260507232026 | 54 | 341 | 3.0 | 11.0 | 0.00 | 0.11 | 0.05 | 25 | 1009.3 |
| 20260507231527 | 54 | 335 | 4.0 | 11.0 | 0.00 | 0.11 | 0.05 | 27 | 1009.3 |
| 20260507231026 | 55 | 336 | 2.0 | 8.0 | 0.00 | 0.11 | 0.05 | 27 | 1009.3 |
| 20260507230526 | 55 | 342 | 4.0 | 14.0 | 0.00 | 0.11 | 0.05 | 26 | 1009.3 |
| 20260507230026 | 55 | 343 | 5.0 | 13.0 | 0.00 | 0.11 | 0.05 | 26 | 1009.3 |
| 20260507225526 | 55 | 333 | 4.0 | 15.0 | 0.00 | 0.11 | 0.05 | 26 | 1009.3 |
| 20260507225026 | 56 | 339 | 5.0 | 16.0 | 0.00 | 0.11 | 0.05 | 25 | 1009.3 |
| 20260507224526 | 56 | 348 | 6.0 | 18.0 | 0.00 | 0.11 | 0.05 | 26 | 1009.3 |
| 20260507224026 | 56 | 349 | 7.0 | 13.0 | 0.00 | 0.11 | 0.05 | 26 | 1009.3 |
| 20260507223526 | 56 | 342 | 6.0 | 14.0 | 0.00 | 0.11 | 0.05 | 26 | 1009.3 |
| 20260507223026 | 56 | 336 | 4.0 | 8.0 | 0.00 | 0.11 | 0.05 | 25 | 1009.3 |
| 20260507222526 | 56 | 349 | 4.0 | 10.0 | 0.00 | 0.12 | 0.05 | 27 | 1009.2 |
| 20260507222026 | 57 | 330 | 4.0 | 9.0 | 0.00 | 0.12 | 0.05 | 26 | 1009.2 |
| 20260507221526 | 57 | 335 | 3.0 | 6.0 | 0.00 | 0.12 | 0.05 | 26 | 1009.1 |
| 20260507221026 | 57 | 340 | 5.0 | 14.0 | 0.00 | 0.13 | 0.05 | 26 | 1009.0 |
| 20260507220526 | 57 | 346 | 4.0 | 10.0 | 0.00 | 0.13 | 0.05 | 25 | 1009.0 |
| 20260507220027 | 57 | 350 | 5.0 | 12.0 | 0.00 | 0.13 | 0.05 | 26 | 1008.9 |
| 20260507215526 | 58 | 353 | 5.0 | 11.0 | 0.00 | 0.14 | 0.05 | 26 | 1008.9 |
| 20260507215046 | 58 | 347 | 3.0 | 10.0 | 0.00 | 0.14 | 0.05 | 26 | 1008.8 |
| 20260507214526 | 58 | 347 | 3.0 | 9.0 | 0.00 | 0.14 | 0.05 | 27 | 1008.7 |
| 20260507214026 | 58 | 340 | 3.0 | 10.0 | 0.00 | 0.14 | 0.05 | 27 | 1008.7 |
| 20260507213526 | 59 | 349 | 5.0 | 11.0 | 0.00 | 0.14 | 0.05 | 26 | 1008.7 |
| 20260507213026 | 59 | 348 | 3.0 | 6.0 | 0.00 | 0.15 | 0.05 | 25 | 1008.6 |
| 20260507212526 | 59 | 339 | 5.0 | 20.0 | 0.00 | 0.15 | 0.05 | 25 | 1008.6 |
| 20260507212046 | 59 | 339 | 5.0 | 11.0 | 0.00 | 0.15 | 0.05 | 25 | 1008.6 |
| 20260507211526 | 58 | 347 | 6.0 | 13.0 | 0.00 | 0.15 | 0.05 | 26 | 1008.5 |
| 20260507211026 | 58 | 340 | 8.0 | 16.0 | 0.00 | 0.15 | 0.05 | 26 | 1008.6 |
| 20260507210526 | 58 | 347 | 6.0 | 15.0 | 0.00 | 0.15 | 0.05 | 26 | 1008.5 |
| 20260507210046 | 58 | 340 | 5.0 | 12.0 | 0.00 | 0.15 | 0.05 | 25 | 1008.6 |
| 20260507205526 | 58 | 348 | 6.0 | 12.0 | 0.00 | 0.15 | 0.05 | 26 | 1008.6 |
| 20260507205026 | 58 | 347 | 8.0 | 18.0 | 0.00 | 0.15 | 0.05 | 27 | 1008.5 |
| 20260507204526 | 59 | 346 | 6.0 | 16.0 | 0.00 | 0.15 | 0.05 | 26 | 1008.6 |
| 20260507204026 | 59 | 348 | 6.0 | 14.0 | 0.00 | 0.16 | 0.05 | 24 | 1008.7 |
| 20260507203526 | 60 | 346 | 7.0 | 14.0 | 0.00 | 0.16 | 0.05 | 25 | 1008.8 |
| 20260507203026 | 60 | 339 | 5.0 | 13.0 | 0.00 | 0.17 | 0.05 | 27 | 1008.7 |
| 20260507202526 | 60 | 352 | 6.0 | 13.0 | 0.00 | 0.18 | 0.05 | 26 | 1008.7 |
| 20260507202026 | 60 | 342 | 5.0 | 13.0 | 0.00 | 0.19 | 0.05 | 27 | 1008.9 |
| 20260507201526 | 60 | 353 | 7.0 | 20.0 | 0.00 | 0.19 | 0.05 | 27 | 1008.6 |
| 20260507201046 | 59 | 356 | 6.0 | 15.0 | 0.00 | 0.20 | 0.05 | 28 | 1008.8 |
| 20260507200526 | 59 | 335 | 5.0 | 11.0 | 0.00 | 0.20 | 0.05 | 27 | 1008.9 |
| 20260507200026 | 60 | 342 | 7.0 | 16.0 | 0.00 | 0.20 | 0.05 | 27 | 1008.8 |
| 20260507195526 | 61 | 326 | 3.0 | 10.0 | 0.00 | 0.21 | 0.05 | 29 | 1008.8 |
| 20260507195046 | 60 | 351 | 6.0 | 20.0 | 0.00 | 0.22 | 0.05 | 25 | 1008.9 |
| 20260507194526 | 61 | 320 | 5.0 | 20.0 | 0.00 | 0.22 | 0.05 | 25 | 1009.0 |
| 20260507194026 | 60 | 348 | 8.0 | 20.0 | 0.00 | 0.22 | 0.05 | 26 | 1009.1 |
| 20260507193526 | 60 | 345 | 7.0 | 13.0 | 0.00 | 0.23 | 0.05 | 25 | 1009.0 |
| 20260507193026 | 60 | 353 | 5.0 | 14.0 | 0.00 | 0.23 | 0.05 | 26 | 1009.1 |
| 20260507192526 | 60 | 351 | 7.0 | 18.0 | 0.00 | 0.24 | 0.05 | 25 | 1009.1 |
| 20260507192026 | 60 | 4 | 7.0 | 17.0 | 0.00 | 0.24 | 0.05 | 27 | 1009.0 |
| 20260507191526 | 60 | 343 | 8.0 | 16.0 | 0.00 | 0.24 | 0.05 | 27 | 1009.1 |
| 20260507191026 | 60 | 333 | 6.0 | 12.0 | 0.00 | 0.24 | 0.05 | 26 | 1009.1 |
| 20260507190526 | 61 | 348 | 7.0 | 12.0 | 0.00 | 0.24 | 0.05 | 27 | 1009.2 |
| 20260507190026 | 61 | 335 | 5.0 | 14.0 | 0.00 | 0.24 | 0.05 | 26 | 1009.2 |
| 20260507185526 | 60 | 354 | 4.0 | 12.0 | 0.00 | 0.24 | 0.05 | 27 | 1009.1 |
| 20260507185025 | 60 | 17 | 4.0 | 10.0 | 0.00 | 0.24 | 0.05 | 25 | 1009.1 |
| 20260507184526 | 59 | 340 | 6.0 | 11.0 | 0.00 | 0.24 | 0.05 | 28 | 1009.2 |
| 20260507184026 | 59 | 350 | 7.0 | 16.0 | 0.00 | 0.25 | 0.05 | 28 | 1009.2 |
| 20260507183526 | 60 | 353 | 7.0 | 14.0 | 0.00 | 0.25 | 0.05 | 29 | 1009.2 |
| 20260507183026 | 60 | 353 | 3.0 | 10.0 | 0.00 | 0.25 | 0.05 | 31 | 1009.3 |
| 20260507182526 | 60 | 350 | 8.0 | 17.0 | 0.00 | 0.25 | 0.05 | 24 | 1009.4 |
| 20260507182026 | 61 | 348 | 6.0 | 13.0 | 0.00 | 0.25 | 0.05 | 25 | 1009.5 |
| 20260507181526 | 61 | 341 | 5.0 | 10.0 | 0.00 | 0.25 | 0.05 | 25 | 1009.5 |
| 20260507181025 | 61 | 337 | 3.0 | 8.0 | 0.00 | 0.26 | 0.05 | 29 | 1009.6 |
| 20260507180526 | 60 | 323 | 4.0 | 14.0 | 0.00 | 0.26 | 0.05 | 27 | 1009.7 |
| 20260507180026 | 60 | 346 | 3.0 | 8.0 | 0.00 | 0.26 | 0.05 | 30 | 1009.8 |
| 20260507175545 | 59 | 355 | 7.0 | 16.0 | 0.00 | 0.27 | 0.05 | 29 | 1009.6 |
| 20260507175025 | 59 | 358 | 5.0 | 11.0 | 0.00 | 0.27 | 0.05 | 27 | 1009.7 |
| 20260507174525 | 59 | 1 | 4.0 | 9.0 | 0.00 | 0.27 | 0.05 | 30 | 1009.7 |
| 20260507174046 | 59 | 351 | 7.0 | 14.0 | 0.00 | 0.28 | 0.05 | 28 | 1009.6 |
| 20260507173525 | 59 | 350 | 7.0 | 14.0 | 0.00 | 0.28 | 0.05 | 28 | 1009.7 |
| 20260507173046 | 59 | 359 | 4.0 | 12.0 | 0.00 | 0.29 | 0.05 | 27 | 1009.9 |
| 20260507172525 | 59 | 316 | 3.0 | 9.0 | 0.00 | 0.29 | 0.05 | 28 | 1009.9 |
| 20260507172025 | 59 | 333 | 4.0 | 11.0 | 0.00 | 0.29 | 0.05 | 28 | 1009.9 |
| 20260507171525 | 59 | 349 | 7.0 | 12.0 | 0.00 | 0.29 | 0.05 | 28 | 1009.9 |
| 20260507171046 | 59 | 359 | 5.0 | 12.0 | 0.00 | 0.29 | 0.05 | 26 | 1010.0 |
| 20260507170525 | 58 | 347 | 7.0 | 13.0 | 0.00 | 0.29 | 0.05 | 29 | 1010.0 |
| 20260507170026 | 58 | 342 | 7.0 | 13.0 | 0.00 | 0.29 | 0.05 | 27 | 1009.9 |
| 20260507165525 | 58 | 341 | 6.0 | 12.0 | 0.00 | 0.29 | 0.05 | 32 | 1010.0 |
| 20260507165025 | 57 | 360 | 6.0 | 12.0 | 0.00 | 0.29 | 0.05 | 30 | 1010.1 |
| 20260507164525 | 58 | 341 | 6.0 | 16.0 | 0.00 | 0.29 | 0.05 | 29 | 1010.2 |
| 20260507164026 | 58 | 342 | 5.0 | 15.0 | 0.00 | 0.29 | 0.05 | 28 | 1010.2 |
| 20260507163525 | 58 | 347 | 6.0 | 12.0 | 0.00 | 0.29 | 0.05 | 28 | 1010.4 |
| 20260507163107 | 58 | 336 | 5.0 | 12.0 | 0.00 | 0.29 | 0.05 | 29 | 1010.6 |
| 20260507162525 | 58 | 338 | 6.0 | 15.0 | 0.00 | 0.29 | 0.05 | 34 | 1010.4 |
| 20260507162025 | 58 | 345 | 5.0 | 11.0 | 0.00 | 0.29 | 0.05 | 31 | 1010.6 |
| 20260507161525 | 58 | 343 | 5.0 | 11.0 | 0.00 | 0.29 | 0.05 | 30 | 1010.8 |
| 20260507161045 | 58 | 334 | 3.0 | 12.0 | 0.00 | 0.29 | 0.05 | 30 | 1010.8 |
| 20260507160525 | 58 | 317 | 3.0 | 9.0 | 0.00 | 0.29 | 0.05 | 29 | 1010.8 |
| 20260507160025 | 57 | 326 | 4.0 | 11.0 | 0.00 | 0.29 | 0.05 | 34 | 1010.8 |
| 20260507155525 | 57 | 350 | 7.0 | 14.0 | 0.00 | 0.29 | 0.05 | 32 | 1010.8 |
| 20260507155025 | 57 | 342 | 7.0 | 15.0 | 0.00 | 0.29 | 0.05 | 33 | 1010.9 |
| 20260507154527 | 57 | 350 | 6.0 | 14.0 | 0.00 | 0.29 | 0.05 | 32 | 1010.8 |
| 20260507154028 | 57 | 7 | 5.0 | 12.0 | 0.00 | 0.29 | 0.05 | 32 | 1010.9 |
| 20260507153527 | 56 | 15 | 3.0 | 9.0 | 0.00 | 0.29 | 0.05 | 38 | 1010.9 |
| 20260507153029 | 56 | 352 | 6.0 | 16.0 | 0.00 | 0.29 | 0.05 | 31 | 1010.9 |
| 20260507152547 | 56 | 342 | 6.0 | 13.0 | 0.00 | 0.29 | 0.05 | 30 | 1011.0 |
| 20260507152027 | 56 | 352 | 6.0 | 14.0 | 0.00 | 0.29 | 0.05 | 32 | 1011.0 |
| 20260507151548 | 56 | 345 | 8.0 | 16.0 | 0.00 | 0.29 | 0.05 | 37 | 1010.9 |
| 20260507151027 | 56 | 344 | 7.0 | 14.0 | 0.00 | 0.29 | 0.05 | 34 | 1010.9 |
| 20260507150527 | 56 | 350 | 8.0 | 18.0 | 0.00 | 0.29 | 0.05 | 34 | 1011.0 |
| 20260507150025 | 56 | 346 | 5.0 | 11.0 | 0.00 | 0.29 | 0.05 | 33 | 1011.0 |
| 20260507145527 | 56 | 341 | 6.0 | 18.0 | 0.00 | 0.29 | 0.05 | 35 | 1011.1 |
| 20260507145027 | 56 | 349 | 4.0 | 11.0 | 0.00 | 0.29 | 0.05 | 37 | 1011.1 |
| 20260507144527 | 56 | 347 | 6.0 | 12.0 | 0.00 | 0.29 | 0.05 | 33 | 1011.1 |
| 20260507144047 | 55 | 320 | 4.0 | 9.0 | 0.00 | 0.29 | 0.05 | 33 | 1011.2 |
| 20260507143528 | 55 | 350 | 5.0 | 12.0 | 0.00 | 0.29 | 0.05 | 35 | 1011.3 |
| 20260507143027 | 55 | 343 | 4.0 | 11.0 | 0.00 | 0.29 | 0.05 | 36 | 1011.2 |
| 20260507142547 | 55 | 350 | 8.0 | 17.0 | 0.00 | 0.29 | 0.05 | 36 | 1011.2 |
| 20260507142107 | 55 | 346 | 6.0 | 13.0 | 0.00 | 0.29 | 0.05 | 34 | 1011.2 |
| 20260507141527 | 55 | 317 | 3.0 | 9.0 | 0.00 | 0.29 | 0.05 | 37 | 1011.2 |
| 20260507141027 | 54 | 332 | 5.0 | 16.0 | 0.00 | 0.29 | 0.05 | 36 | 1011.2 |
| 20260507140527 | 54 | 345 | 5.0 | 11.0 | 0.00 | 0.29 | 0.05 | 39 | 1011.2 |
| 20260507140107 | 54 | 336 | 5.0 | 10.0 | 0.00 | 0.29 | 0.05 | 40 | 1011.3 |
| 20260507135527 | 53 | 345 | 5.0 | 12.0 | 0.00 | 0.29 | 0.05 | 42 | 1011.2 |
| 20260507135027 | 53 | 331 | 5.0 | 16.0 | 0.00 | 0.29 | 0.05 | 42 | 1011.1 |
| 20260507134548 | 53 | 339 | 7.0 | 16.0 | 0.00 | 0.29 | 0.05 | 38 | 1011.2 |
| 20260507134047 | 53 | 327 | 4.0 | 12.0 | 0.00 | 0.29 | 0.05 | 41 | 1011.2 |
| 20260507133527 | 53 | 331 | 4.0 | 15.0 | 0.00 | 0.29 | 0.05 | 39 | 1011.1 |
| 20260507133047 | 53 | 342 | 4.0 | 11.0 | 0.00 | 0.29 | 0.05 | 48 | 1011.0 |
| 20260507132527 | 52 | 345 | 6.0 | 11.0 | 0.00 | 0.29 | 0.05 | 42 | 1011.0 |
| 20260507132027 | 52 | 346 | 6.0 | 14.0 | 0.00 | 0.29 | 0.05 | 43 | 1011.1 |
| 20260507131547 | 51 | 349 | 6.0 | 14.0 | 0.00 | 0.29 | 0.05 | 46 | 1011.0 |
| 20260507131027 | 51 | 338 | 6.0 | 15.0 | 0.00 | 0.29 | 0.05 | 44 | 1011.0 |
| 20260507130527 | 51 | 331 | 5.0 | 14.0 | 0.00 | 0.29 | 0.05 | 41 | 1010.9 |
| 20260507130027 | 51 | 341 | 6.0 | 13.0 | 0.00 | 0.29 | 0.05 | 39 | 1011.0 |
| 20260507125527 | 51 | 344 | 7.0 | 15.0 | 0.00 | 0.29 | 0.05 | 36 | 1011.1 |
| 20260507125027 | 51 | 333 | 5.0 | 11.0 | 0.00 | 0.29 | 0.05 | 37 | 1011.1 |
| 20260507124527 | 51 | 343 | 6.0 | 12.0 | 0.00 | 0.29 | 0.05 | 38 | 1011.1 |
| 20260507124027 | 50 | 341 | 5.0 | 11.0 | 0.00 | 0.29 | 0.05 | 40 | 1011.0 |
| 20260507123547 | 50 | 342 | 5.0 | 12.0 | 0.00 | 0.29 | 0.05 | 38 | 1011.0 |
| 20260507123027 | 50 | 343 | 5.0 | 11.0 | 0.00 | 0.29 | 0.05 | 40 | 1011.0 |
| 20260507122527 | 49 | 336 | 2.0 | 5.0 | 0.00 | 0.29 | 0.05 | 44 | 1010.9 |
| 20260507122027 | 49 | 339 | 3.0 | 9.0 | 0.00 | 0.29 | 0.05 | 44 | 1010.9 |
| 20260507121528 | 49 | 348 | 3.0 | 9.0 | 0.00 | 0.29 | 0.05 | 46 | 1010.9 |
| 20260507121048 | 49 | 350 | 3.0 | 8.0 | 0.00 | 0.29 | 0.05 | 47 | 1010.9 |
| 20260507120527 | 48 | 337 | 2.0 | 5.0 | 0.00 | 0.29 | 0.05 | 48 | 1011.0 |
| 20260507120027 | 48 | 357 | 2.0 | 5.0 | 0.00 | 0.29 | 0.05 | 48 | 1011.0 |
| 20260507115527 | 48 | 346 | 3.0 | 6.0 | 0.00 | 0.29 | 0.05 | 48 | 1011.0 |
| 20260507115027 | 48 | 0.0 | 2.0 | 0.00 | 0.29 | 0.05 | 49 | 1010.9 | |
| 20260507114527 | 48 | 12 | 1.0 | 3.0 | 0.00 | 0.29 | 0.05 | 49 | 1010.8 |
| 20260507114047 | 48 | 3 | 1.0 | 4.0 | 0.00 | 0.29 | 0.05 | 49 | 1010.6 |
| 20260507113527 | 48 | 336 | 1.0 | 4.0 | 0.00 | 0.29 | 0.05 | 49 | 1010.7 |
| 20260507113027 | 48 | 0.0 | 1.0 | 0.00 | 0.29 | 0.05 | 49 | 1010.6 | |
| 20260507112527 | 48 | 0.0 | 1.0 | 0.00 | 0.29 | 0.05 | 49 | 1010.6 | |
| 20260507112047 | 48 | 0.0 | 1.0 | 0.00 | 0.29 | 0.05 | 49 | 1010.6 | |
| 20260507111527 | 48 | 188 | 1.0 | 2.0 | 0.00 | 0.29 | 0.05 | 49 | 1010.5 |
| 20260507111027 | 47 | 0.0 | 1.0 | 0.00 | 0.29 | 0.05 | 49 | 1010.2 | |
| 20260507110527 | 47 | 0.0 | 1.0 | 0.00 | 0.29 | 0.05 | 49 | 1010.2 | |
| 20260507110027 | 47 | 188 | 1.0 | 2.0 | 0.00 | 0.29 | 0.05 | 49 | 1010.1 |
| 20260507105527 | 47 | 0.0 | 2.0 | 0.00 | 0.29 | 0.05 | 49 | 1010.3 | |
| 20260507105027 | 47 | 0.0 | 0.0 | 0.00 | 0.29 | 0.05 | 49 | 1010.2 | |
| 20260507104527 | 47 | 0.0 | 0.0 | 0.00 | 0.29 | 0.05 | 49 | 1010.2 | |
| 20260507104027 | 47 | 0.0 | 0.0 | 0.01 | 0.29 | 0.05 | 49 | 1010.0 | |
| 20260507103526 | 46 | 0.0 | 0.0 | 0.01 | 0.29 | 0.05 | 49 | 1009.9 | |
| 20260507103027 | 46 | 0.0 | 0.0 | 0.01 | 0.29 | 0.05 | 49 | 1009.7 | |
| 20260507102526 | 46 | 0.0 | 1.0 | 0.01 | 0.29 | 0.05 | 49 | 1009.8 | |
| 20260507102026 | 46 | 0.0 | 1.0 | 0.01 | 0.29 | 0.05 | 49 | 1009.9 | |
| 20260507101527 | 46 | 0.0 | 1.0 | 0.01 | 0.29 | 0.05 | 49 | 1009.9 | |
| 20260507101047 | 46 | 0.0 | 3.0 | 0.01 | 0.29 | 0.05 | 49 | 1009.7 | |
| 20260507100527 | 46 | 0.0 | 0.0 | 0.01 | 0.29 | 0.05 | 49 | 1009.7 | |
| 20260507100026 | 46 | 0.0 | 0.0 | 0.01 | 0.29 | 0.05 | 49 | 1009.6 | |
| 20260507095527 | 46 | 0.0 | 0.0 | 0.01 | 0.29 | 0.05 | 49 | 1009.6 | |
| 20260507095027 | 46 | 0.0 | 0.0 | 0.01 | 0.29 | 0.05 | 49 | 1009.5 | |
| 20260507094547 | 47 | 0.0 | 0.0 | 0.01 | 0.29 | 0.05 | 49 | 1009.6 | |
| 20260507094027 | 47 | 0.0 | 1.0 | 0.00 | 0.28 | 0.04 | 49 | 1009.5 | |
| 20260507093527 | 47 | 0.0 | 1.0 | 0.00 | 0.28 | 0.04 | 49 | 1009.6 | |
| 20260507093047 | 47 | 346 | 1.0 | 2.0 | 0.00 | 0.28 | 0.04 | 49 | 1009.4 |
| 20260507092527 | 47 | 0.0 | 1.0 | 0.00 | 0.28 | 0.04 | 49 | 1009.8 | |
| 20260507092026 | 47 | 0.0 | 1.0 | 0.00 | 0.28 | 0.04 | 49 | 1009.7 | |
| 20260507091547 | 47 | 0.0 | 1.0 | 0.00 | 0.28 | 0.04 | 49 | 1009.7 | |
| 20260507091026 | 47 | 0.0 | 1.0 | 0.00 | 0.28 | 0.04 | 49 | 1009.5 | |
| 20260507090527 | 47 | 0.0 | 1.0 | 0.00 | 0.28 | 0.04 | 49 | 1009.7 | |
| 20260507090047 | 47 | 346 | 1.0 | 2.0 | 0.00 | 0.28 | 0.04 | 49 | 1009.8 |
| 20260507085546 | 47 | 0.0 | 1.0 | 0.00 | 0.28 | 0.04 | 49 | 1009.8 | |
| 20260507085026 | 47 | 346 | 1.0 | 3.0 | 0.00 | 0.28 | 0.04 | 49 | 1009.7 |
| 20260507084527 | 47 | 0.0 | 0.0 | 0.00 | 0.28 | 0.04 | 49 | 1010.1 | |
| 20260507084026 | 47 | 0.0 | 1.0 | 0.01 | 0.28 | 0.04 | 48 | 1010.0 | |
| 20260507083526 | 48 | 0.0 | 0.0 | 0.01 | 0.28 | 0.04 | 48 | 1009.9 | |
| 20260507083027 | 48 | 0.0 | 0.0 | 0.01 | 0.28 | 0.04 | 48 | 1010.2 | |
| 20260507082527 | 48 | 0.0 | 0.0 | 0.01 | 0.28 | 0.04 | 48 | 1010.3 | |
| 20260507082026 | 48 | 0.0 | 0.0 | 0.01 | 0.28 | 0.04 | 48 | 1010.3 | |
| 20260507081546 | 48 | 0.0 | 1.0 | 0.01 | 0.28 | 0.04 | 48 | 1010.1 | |
| 20260507081026 | 48 | 0.0 | 1.0 | 0.01 | 0.28 | 0.04 | 48 | 1010.0 | |
| 20260507080526 | 48 | 0.0 | 0.0 | 0.01 | 0.28 | 0.04 | 48 | 1010.1 |